Regional Weather Roundup
Issued by NWS

Home | Current Version | Previous Version | Text Only | Print | Product List | Glossary On
Versions: 1 2 3 4 5 6 7 8 9 10 11 12 13 14 15 16 17 18 19 20 21 22 23 24 25 26 27 28
000
ASUS44 KBMX 180810
RWRAL

ALABAMA REGIONAL WEATHER ROUNDUP
NATIONAL WEATHER SERVICE BIRMINGHAM AL
300 AM CDT FRI APR 18 2014

NOTE: "FAIR" INDICATES FEW OR NO CLOUDS BELOW 12,000 FEET
WITH NO SIGNIFICANT WEATHER AND/OR OBSTRUCTIONS TO VISIBILITY.

THE REMARK "TC" DENOTES TEMPERATURE IN DEGREES CELSIUS.

ALZ001>011-014-016>018-020-180900-
NORTH ALABAMA

CITY           SKY/WX    TMP DP  RH WIND       PRES   REMARKS
MUSCLE SHOALS  CLOUDY    58  47  66 CALM      30.25F
HUNTSVILLE     CLOUDY    58  45  62 E8        30.25F
DECATUR        CLOUDY    57  47  69 CALM      30.25F
HALEYVILLE     MOCLDY    56  47  71 SE5       30.26F
GADSDEN        NOT AVBL
$$

ALZ012-013-022-023-030>036-040>044-180900-
WEST CENTRAL ALABAMA

CITY           SKY/WX    TMP DP  RH WIND       PRES   REMARKS
TUSCALOOSA     CLOUDY    60  49  66 E5        30.21F
$$

ALZ015-024>027-033>036-040>044-180900-
CENTRAL ALABAMA

CITY           SKY/WX    TMP DP  RH WIND       PRES   REMARKS
BIRMINGHAM     CLOUDY    60  44  55 E5        30.25F
MONTGOMERY     CLOUDY    61  48  62 E14       30.21F
SHELBY CO ARPT CLOUDY    60  46  59 E6        30.22F
MAXWELL AFB    CLOUDY    64  54  70 E9        30.21F
GREENVILLE     HVY RAIN  57  54  89 NE7       30.17F FOG
$$

ALZ019-021-028-029-037-038-045>048-180900-
EAST CENTRAL ALABAMA

CITY           SKY/WX    TMP DP  RH WIND       PRES   REMARKS
ANNISTON       CLOUDY    58  42  55 E10       30.25S
ALEXANDER CITY CLOUDY    60  46  58 E5        30.25S
AUBURN         CLOUDY    55  43  62 E7        30.26F
$$

ALZ051>064-180900-
SOUTHWEST ALABAMA

CITY           SKY/WX    TMP DP  RH WIND       PRES   REMARKS
MOBILE         LGT RAIN  59  59 100 NE14      30.08F
BROOKLEY FIELD RAIN      61  59  93 NE10      30.10F FOG
EVERGREEN      RAIN      59  56  89 NE5       30.16F FOG
$$

ALZ049-050-065>069-180900-
SOUTHEAST ALABAMA

CITY           SKY/WX    TMP DP  RH WIND       PRES   REMARKS
DOTHAN         RAIN      56  54  93 NE12      30.19F FOG
OZARK          RAIN      57  55  94 NE7       30.16F
TROY           RAIN      57  54  89 NE5       30.20F
EUFAULA        CLOUDY    56  53  90 NE7       30.20F FOG
$$



USA.gov is the U.S. government's official web portal to all federal, state and local government web resources and services.